SCP
0 0 0 0 0 -0 -0 0 0 0 0 0 0 0 0 0 0 0 0 0 0 0 0 0 0 0 0 0 0 0 0 0 0 0 0 0 0 0 0 0 0 0 0 0
0 0 0 0 0 -0 -0 0 0 0 0 0 0 0 0 0 0 0 0 0 0 0 0 0 0 0 0 0 0 0 0 0 0 0 0 0 0 0 0 0 0 0 0 0
0 0 0 0 0 0 0 0 0 0 0 0 0 0 0 0 0 0 0 0 0 0 0 0 0 0 0 0 0 0 0 0 0 0 0 0 0 0 0 0 0 0 0 0
0 0 0 0 0 0 0 0 0 0 0 0 0 0 0 0 0 0 0 0 0 0 0 0 0 0 0 0 0 0 0 0 0 0 0 0 0 0 0 0 0 0 0 0
0 0 0 0 0 0 0 0 0 0 0 0 0 0 0 0 0 0 0 0 0 0 0 0 0 0 0 0 0 0 0 0 0 0 0 0 0 0 0 0 0 0 0 0
0 0 0 0 0 0 0 0 0 0 0 0 0 0 0 0 0 0 0 0 0 0 0 0 0 0 0 0 0 0 0 0 0 0 0 0 0 0 0 0 0 0 0 0
0 0 0 0 0 0 0 0 0 0 0 0 0 0 0 0 0 0 0 0 0 0 0 0 0 0 0 0 0 0 0 0 0 0 0 0 0 0 0 0 0 0 0 0
0 0 0 0 0 0 0 0 0 0 0 0 0 0 0 0 0 0 0 0 0 0 0 0 0 0 0 0 0 0 0 0 0 0 0 0 0 0 0 0 0 0 0 0
0 0 0 0 0 0 0 0 0 0 0 0 0 0 0 0 0 0 0 0 0 0 0 0 0 0 0 0 0 0 0 0 0 0 0 0 0 0 0 0 0 0 0 0
0 0 0 0 0 0 0 0 0 0 0 0 0 0 0 0 0 0 0 0 0 0 0 0 0 0 0 0 0 0 0 0 0 0 0 0 0 0 -0 0 0 0 0 0
0 0 0 0 0 0 0 0 0 0 0 0 0 0 0 0 0 0 0 0 0 0 0 0 0 0 0 0 0 0 0 0 0 0 0 0 0 0 0 0 0 0 0 0
0 0 0 0 0 0 0 0 0 0 0 0 0 0 0 0 0 0 0 0 0 0 0 0 0 0 0 0 0 0 0 0 0 0 0 0 0 0 0 0 0 0 0 0
0 0 0 0 0 0 0 0 0 0 0 0 0 0 0 0 0 0 0 0 0 0 0 0 0 0 0 0 0 0 0 0 0 0 0 0 0 0 0 0 0 0 0 0
0 0 0 0 0 0 0 0 0 0 0 0 0 0 0 0 0 0 0 0 -0 -0 0 0 0 0 0 0 0 -0 0 0 0 0 0 -0 0 0 0 0 0 0 -0 0
0 0 0 0 0 0 0 0 0 0 0 0 0 0 0 0 0 0 0 0 0 0 0 0 0 0 0 0 0 0 0 0 0 0 0 0 0 0 0 0 0 0 0 0
0 0 0 0 0 0 0 0 0 0 0 0 0 0 0 0 0 0 0 0 0 0 0 0 0 0 0 -0 0 0 0 0 0 0 0 0 0 0 0 0 0 0 0 0
0 0 0 0 0 0 0 0 0 0 0 0 0 0 0 -0 0 0 -0 0 0 0 0 0 0 0 0 -0 0 0 0 -0 -0 -0 0 0 0 0 0 0 0 0 0 0
0 0 0 0 0 0 0 0 0 0 0 0 0 0 0 0 0 0 0 0 0 0 0 0 0 0 0 -0 0 0 0 0 -0 -0 0 0 0 0 0 0 0 0 0 0
0 0 0 0 0 0 0 0 0 0 0 0 0 0 0 0 0 0 -0 0 0 0 0 0 0 -0 -0 -0 0 0 -0 -0 0 0 0 0 0 0 0 0 0 0 0 0
0 0 0 0 0 0 0 0 0 0 0 0 0 0 0 0 0 -0 -0 0 0 0 -0 0 0 -0 0 0 0 -0 -0 -0 -0 -0 -0 0 0 -0 0 0 0 0 0 0
0 0 0 0 0 0 0 0 0 0 0 0 0 0 0 0 0 0 0 0 0 0 0 -0 0 -0 0 0 0 -0 0 -0 -0 0 0 0 -0 0 0 0 0 0 0 0
0 0 0 0 0 0 0 0 0 0 0 0 0 0 0 0 -0 0 0 0 0 -0 -0 0 0 0 0 0 0 -0 -0 -0 -0 -0 -0 0 0 0 0 0 0 0 0 0
0 0 0 0 0 0 0 0 0 0 0 0 -0 0 0 0 -0 0 0 0 0 -0 -0 -0 0 0 0 0 0 -0 -0 -0 -0 -0 -0 -0 -0 0 0 0 0 0 0 0
0 0 0 0 0 0 0 0 0 0 0 0 -0 0 -0 0 0 0 0 0 0 -0 0 0 0 0 -0 -0 0 0 -0 -0 -0 -0 -0 -0 -0 -0 0 0 0 0 0 0
0 0 0 0 0 0 0 0 0 0 -0 0 0 -0 -0 0 0 0 0 0 0 0 -0 -0 0 0 0 -0 -0 0 -0 -0 -0 -0 -0 -0 -0 -0 0 0 0 0 0 0
0 0 0 -0 0 0 0 0 0 0 0 0 -0 0 0 0 0 0 0 0 0 -0 -0 0 0 0 0 -0 0 0 -0 0 -0 -0 -0 -0 -0 -0 0 0 0 0 0 0
0 0 0 -0 0 0 -0 0 0 0 0 0 0 0 0 0 0 0 0 0 0 0 0 0 0 0 0 0 0 0 -0 0 -0 -0 -0 -0 0 -0 -0 0 0 0 0 0
Wind_Speed_500mb
40 45 50 52 57 74 67 26 6 7 22 3 6 5 9 16 28 29 8 5 9 9 6 7 6 8 6 36 18 11 7 5 5 10 13 15 7 9 9 7 7 6 6 17
46 49 51 46 51 61 71 44 14 10 23 4 4 13 14 20 23 23 14 8 12 13 8 8 5 13 21 25 15 11 9 5 7 13 10 9 5 9 8 5 5 11 8 13
43 44 44 39 45 52 50 15 8 13 13 10 10 11 10 20 28 27 22 7 5 6 8 6 8 14 9 19 14 19 8 6 12 11 11 7 12 18 13 15 7 12 20 42
38 38 41 40 39 43 37 6 6 12 6 7 14 12 15 20 17 17 29 13 19 13 8 10 12 9 10 10 4 6 6 7 6 13 14 16 21 27 27 21 23 16 31 33
36 35 35 35 38 40 19 10 11 17 23 19 21 14 15 20 26 20 18 17 29 27 16 15 22 7 10 11 3 4 3 5 8 21 16 17 24 24 29 31 30 14 12 16
34 32 31 31 35 35 10 7 17 12 12 7 3 6 10 17 32 19 19 25 24 27 27 20 36 41 31 22 12 8 6 7 3 8 7 11 13 5 8 9 10 4 5 8
31 32 33 31 32 28 15 12 15 7 7 10 11 13 29 27 31 17 26 25 23 19 34 40 47 45 39 27 22 24 9 9 6 7 6 2 9 15 8 8 13 9 6 10
28 30 32 30 27 24 14 10 7 6 7 12 20 24 22 32 33 14 23 32 42 35 21 8 13 8 5 2 11 14 16 9 3 4 5 12 9 14 14 13 2 15 15 20
24 25 26 26 22 22 20 14 13 14 10 11 20 14 26 12 5 9 11 27 35 26 2 3 4 6 7 4 5 9 10 6 7 5 4 9 3 17 21 9 12 19 14 18
23 18 21 21 21 23 21 20 19 15 13 28 22 11 8 11 4 6 12 20 22 13 1 3 6 7 9 6 4 4 3 4 7 3 9 10 10 26 29 4 9 37 28 27
24 19 20 20 20 23 23 26 23 27 15 40 51 39 34 17 11 5 11 19 6 7 2 3 5 4 5 4 4 7 7 5 4 3 6 12 5 14 3 10 29 34 39 48
27 23 21 20 19 22 24 31 27 28 38 36 60 72 72 52 48 29 7 17 16 6 3 4 4 5 6 2 4 8 5 8 5 11 10 6 6 14 8 27 31 37 51 62
28 24 23 24 22 22 27 34 25 27 35 49 30 11 6 22 25 30 12 14 5 4 9 4 5 5 3 2 6 4 10 4 4 8 2 8 50 4 36 43 39 51 51 51
32 23 26 28 25 25 26 33 29 24 17 10 20 12 14 19 20 28 42 40 28 18 13 6 4 3 5 5 8 4 9 4 2 10 14 31 4 41 55 60 58 55 51 71
34 24 26 31 27 25 27 30 35 32 23 9 27 73 25 43 47 35 27 39 38 20 6 3 5 8 3 5 3 4 1 4 2 8 13 17 40 56 63 67 58 70 55 64
28 22 25 29 27 24 23 11 22 36 36 10 8 16 23 8 9 31 34 36 32 13 5 8 10 22 1 2 4 8 7 1 5 13 38 39 52 52 51 58 76 68 64 73
31 25 29 27 28 27 20 9 4 12 18 6 11 11 9 8 25 33 41 34 21 12 6 6 8 7 7 5 6 5 13 25 36 24 32 28 29 53 66 71 75 73 69 71
24 23 27 26 26 24 29 29 18 16 10 7 5 8 10 9 10 7 27 18 17 12 8 6 8 4 7 6 6 13 26 37 27 26 37 45 55 60 68 62 69 73 68 67
18 30 30 26 23 15 21 25 19 22 13 6 8 4 5 9 9 13 9 14 4 10 5 6 5 3 7 9 6 13 20 27 38 49 48 45 52 60 60 72 70 67 66 63
30 40 17 11 12 17 16 19 14 17 11 13 7 10 6 6 9 14 6 12 6 5 9 7 5 4 6 1 6 16 24 30 39 39 40 56 57 64 67 66 69 67 72 78
44 19 11 13 19 18 7 7 9 10 7 12 14 28 14 5 4 4 8 6 6 4 4 4 5 4 5 1 11 21 26 31 30 31 42 45 53 59 62 67 72 73 82 71
26 20 25 22 11 8 7 7 7 9 8 11 9 14 21 12 19 12 11 5 5 7 19 5 3 5 7 8 18 22 23 25 34 38 43 46 48 48 54 64 68 73 80 84
31 10 11 11 10 9 10 12 7 6 9 13 9 8 19 18 28 9 3 3 6 23 6 3 3 13 5 9 15 22 25 31 38 45 54 46 49 50 52 59 65 72 81 85
9 13 10 9 9 9 9 6 4 12 8 25 21 11 14 10 4 4 3 5 2 4 2 2 3 9 5 10 15 21 27 29 37 48 57 47 52 53 51 55 62 71 82 89
10 10 9 13 19 9 11 20 23 21 24 20 7 9 6 3 2 3 1 5 2 1 3 4 10 6 4 11 15 17 26 28 36 46 50 45 52 53 54 58 62 69 77 90
10 10 7 15 4 11 22 23 21 18 21 16 16 6 1 3 5 2 5 0 5 4 4 8 10 3 5 10 14 19 17 22 33 41 40 43 53 54 53 60 63 72 82 88
10 10 25 30 10 12 19 19 22 24 8 4 6 3 9 2 4 3 5 7 6 17 16 13 10 6 6 5 13 17 21 27 37 33 41 41 51 53 54 64 66 71 85 89
Wind_Direction_500mb
328 328 332 337 345 338 346 350 325 140 174 208 204 204 207 316 327 348 320 320 213 202 224 249 273 255 283 315 308 295 200 214 243 238 276 283 130 153 128 123 230 226 265 266
321 323 328 341 347 347 344 330 288 9 232 255 298 330 323 331 346 334 351 341 11 4 5 333 262 304 334 11 30 13 323 288 321 316 351 351 121 189 180 137 95 207 248 273
320 321 325 336 345 346 348 323 325 327 350 45 33 339 295 329 317 314 358 304 20 332 300 205 276 306 302 350 351 37 40 207 197 239 236 201 278 275 247 184 168 242 234 267
318 316 321 328 337 345 352 314 292 6 337 355 330 334 285 350 347 344 340 344 359 342 295 291 283 287 310 297 298 78 88 237 268 265 263 274 277 281 280 249 243 241 277 263
311 313 321 331 337 351 19 325 354 342 305 307 336 324 333 345 338 343 321 335 329 325 289 252 290 211 202 228 321 84 42 251 330 286 263 266 276 285 282 272 270 261 296 321
301 308 312 322 334 354 20 318 322 303 265 296 314 249 321 327 328 313 342 329 331 312 307 287 275 261 238 224 201 176 203 167 164 275 248 298 286 229 282 317 15 296 299 345
299 299 305 310 321 342 342 330 326 286 281 268 252 280 293 291 292 298 310 325 282 291 310 297 288 264 249 225 228 183 179 159 157 261 15 253 235 24 82 18 80 92 204 251
301 297 299 302 310 321 307 317 306 270 282 308 291 271 280 299 292 299 293 287 307 304 303 321 321 326 334 228 220 186 190 133 253 150 195 287 317 26 354 334 319 22 352 335
303 293 292 296 301 309 289 276 290 259 290 241 287 322 303 291 302 314 278 299 319 306 266 293 284 287 305 1 104 48 139 149 150 84 175 238 15 340 317 346 256 23 3 344
308 293 285 284 285 293 281 261 261 250 251 283 280 255 312 299 310 261 298 333 304 292 296 282 234 255 336 46 6 262 82 46 201 192 240 279 12 309 310 249 294 342 331 315
295 291 278 276 275 279 279 267 258 249 248 278 278 276 261 258 210 222 322 326 325 343 313 286 316 322 316 29 287 315 147 178 241 224 246 269 294 314 228 324 322 311 304 294
283 285 280 269 269 267 266 251 258 262 247 264 285 284 275 248 255 266 238 271 307 300 330 358 336 328 322 25 289 351 95 163 203 198 226 168 329 256 323 332 306 305 312 310
271 272 287 274 263 263 263 247 256 266 261 292 282 241 307 271 236 231 220 267 234 326 348 273 252 269 106 295 263 0 333 66 189 3 225 278 312 332 324 324 309 312 319 316
252 257 277 278 255 252 244 239 251 254 265 279 287 349 255 193 224 228 244 251 275 292 294 259 245 205 213 246 249 227 222 58 219 266 292 321 253 322 319 311 310 317 304 317
248 238 263 269 243 249 241 241 251 248 247 283 290 294 310 230 238 223 248 244 247 256 276 241 242 247 301 296 323 242 174 194 164 249 301 290 287 308 319 315 305 305 304 315
247 250 266 249 220 227 217 268 259 242 246 284 291 291 299 298 209 217 224 231 231 216 232 270 263 252 313 282 267 105 117 343 261 273 298 293 296 308 316 304 312 308 307 311
240 247 248 212 217 220 207 220 188 130 204 245 285 285 302 261 236 230 230 232 214 207 216 242 262 276 144 236 231 179 320 315 319 329 332 314 310 306 323 314 311 312 317 313
246 243 209 201 198 212 230 240 227 262 198 213 266 270 301 240 226 139 199 193 185 211 222 232 240 229 181 251 245 290 316 325 333 327 321 304 311 321 312 316 324 319 316 320
221 189 194 180 196 218 238 256 256 247 216 238 234 255 277 323 240 180 177 189 179 212 211 229 236 201 219 227 250 328 333 333 317 319 320 327 320 314 327 335 329 326 322 319
202 180 162 190 198 194 146 157 183 211 220 237 245 220 260 335 326 182 208 197 198 203 215 197 200 257 155 147 5 353 330 327 326 326 320 322 326 332 331 329 334 336 325 324
180 175 153 147 140 149 187 197 200 198 241 227 237 219 217 241 214 283 256 192 175 241 145 224 200 224 135 138 348 337 328 328 339 337 328 323 325 326 329 333 342 338 337 333
195 159 131 138 172 190 217 199 198 204 239 206 213 219 200 224 207 233 217 224 162 244 144 236 227 108 107 13 342 336 339 358 1 348 338 333 332 336 340 339 344 345 341 333
137 133 139 154 169 205 214 204 192 211 212 221 222 182 180 214 215 243 75 256 237 125 194 184 79 127 100 8 351 6 12 4 354 350 350 346 347 352 352 352 354 349 343 339
139 157 164 207 185 229 206 219 187 207 239 296 315 256 202 204 148 170 151 273 104 241 72 88 141 162 33 333 339 352 350 351 350 348 349 350 348 352 3 2 359 356 348 346
159 187 216 216 232 225 224 247 271 249 272 284 115 294 265 241 166 180 292 250 308 69 135 186 172 165 348 318 333 335 345 349 346 348 355 358 2 4 5 5 6 3 357 351
187 222 252 257 288 240 229 232 274 245 221 237 244 235 100 249 151 116 233 25 223 216 170 155 193 242 302 302 317 333 356 342 348 357 6 7 7 9 7 8 10 12 359 1
211 233 234 250 292 258 250 235 242 221 296 193 209 155 212 122 67 280 177 202 201 160 159 179 225 258 283 302 337 1 349 358 0 9 9 11 12 13 13 9 9 15 3 9
Wind_Speed_850mb
40 45 50 52 57 74 67 26 6 7 22 3 6 5 9 16 28 29 8 5 9 9 6 7 6 8 6 36 18 11 7 5 5 10 13 15 7 9 9 7 7 6 6 17
46 49 51 46 51 61 71 44 14 10 23 4 4 13 14 20 23 23 14 8 12 13 8 8 5 13 21 25 15 11 9 5 7 13 10 9 5 9 8 5 5 11 8 13
43 44 44 39 45 52 50 15 8 13 13 10 10 11 10 20 28 27 22 7 5 6 8 6 8 14 9 19 14 19 8 6 12 11 11 7 12 18 13 15 7 12 20 42
38 38 41 40 39 43 37 6 6 12 6 7 14 12 15 20 17 17 29 13 19 13 8 10 12 9 10 10 4 6 6 7 6 13 14 16 21 27 27 21 23 16 31 33
36 35 35 35 38 40 19 10 11 17 23 19 21 14 15 20 26 20 18 17 29 27 16 15 22 7 10 11 3 4 3 5 8 21 16 17 24 24 29 31 30 14 12 16
34 32 31 31 35 35 10 7 17 12 12 7 3 6 10 17 32 19 19 25 24 27 27 20 36 41 31 22 12 8 6 7 3 8 7 11 13 5 8 9 10 4 5 8
31 32 33 31 32 28 15 12 15 7 7 10 11 13 29 27 31 17 26 25 23 19 34 40 47 45 39 27 22 24 9 9 6 7 6 2 9 15 8 8 13 9 6 10
28 30 32 30 27 24 14 10 7 6 7 12 20 24 22 32 33 14 23 32 42 35 21 8 13 8 5 2 11 14 16 9 3 4 5 12 9 14 14 13 2 15 15 20
24 25 26 26 22 22 20 14 13 14 10 11 20 14 26 12 5 9 11 27 35 26 2 3 4 6 7 4 5 9 10 6 7 5 4 9 3 17 21 9 12 19 14 18
23 18 21 21 21 23 21 20 19 15 13 28 22 11 8 11 4 6 12 20 22 13 1 3 6 7 9 6 4 4 3 4 7 3 9 10 10 26 29 4 9 37 28 27
24 19 20 20 20 23 23 26 23 27 15 40 51 39 34 17 11 5 11 19 6 7 2 3 5 4 5 4 4 7 7 5 4 3 6 12 5 14 3 10 29 34 39 48
27 23 21 20 19 22 24 31 27 28 38 36 60 72 72 52 48 29 7 17 16 6 3 4 4 5 6 2 4 8 5 8 5 11 10 6 6 14 8 27 31 37 51 62
28 24 23 24 22 22 27 34 25 27 35 49 30 11 6 22 25 30 12 14 5 4 9 4 5 5 3 2 6 4 10 4 4 8 2 8 50 4 36 43 39 51 51 51
32 23 26 28 25 25 26 33 29 24 17 10 20 12 14 19 20 28 42 40 28 18 13 6 4 3 5 5 8 4 9 4 2 10 14 31 4 41 55 60 58 55 51 71
34 24 26 31 27 25 27 30 35 32 23 9 27 73 25 43 47 35 27 39 38 20 6 3 5 8 3 5 3 4 1 4 2 8 13 17 40 56 63 67 58 70 55 64
28 22 25 29 27 24 23 11 22 36 36 10 8 16 23 8 9 31 34 36 32 13 5 8 10 22 1 2 4 8 7 1 5 13 38 39 52 52 51 58 76 68 64 73
31 25 29 27 28 27 20 9 4 12 18 6 11 11 9 8 25 33 41 34 21 12 6 6 8 7 7 5 6 5 13 25 36 24 32 28 29 53 66 71 75 73 69 71
24 23 27 26 26 24 29 29 18 16 10 7 5 8 10 9 10 7 27 18 17 12 8 6 8 4 7 6 6 13 26 37 27 26 37 45 55 60 68 62 69 73 68 67
18 30 30 26 23 15 21 25 19 22 13 6 8 4 5 9 9 13 9 14 4 10 5 6 5 3 7 9 6 13 20 27 38 49 48 45 52 60 60 72 70 67 66 63
30 40 17 11 12 17 16 19 14 17 11 13 7 10 6 6 9 14 6 12 6 5 9 7 5 4 6 1 6 16 24 30 39 39 40 56 57 64 67 66 69 67 72 78
44 19 11 13 19 18 7 7 9 10 7 12 14 28 14 5 4 4 8 6 6 4 4 4 5 4 5 1 11 21 26 31 30 31 42 45 53 59 62 67 72 73 82 71
26 20 25 22 11 8 7 7 7 9 8 11 9 14 21 12 19 12 11 5 5 7 19 5 3 5 7 8 18 22 23 25 34 38 43 46 48 48 54 64 68 73 80 84
31 10 11 11 10 9 10 12 7 6 9 13 9 8 19 18 28 9 3 3 6 23 6 3 3 13 5 9 15 22 25 31 38 45 54 46 49 50 52 59 65 72 81 85
9 13 10 9 9 9 9 6 4 12 8 25 21 11 14 10 4 4 3 5 2 4 2 2 3 9 5 10 15 21 27 29 37 48 57 47 52 53 51 55 62 71 82 89
10 10 9 13 19 9 11 20 23 21 24 20 7 9 6 3 2 3 1 5 2 1 3 4 10 6 4 11 15 17 26 28 36 46 50 45 52 53 54 58 62 69 77 90
10 10 7 15 4 11 22 23 21 18 21 16 16 6 1 3 5 2 5 0 5 4 4 8 10 3 5 10 14 19 17 22 33 41 40 43 53 54 53 60 63 72 82 88
10 10 25 30 10 12 19 19 22 24 8 4 6 3 9 2 4 3 5 7 6 17 16 13 10 6 6 5 13 17 21 27 37 33 41 41 51 53 54 64 66 71 85 89
Wind_Direction_850mb
328 328 332 337 345 338 346 350 325 140 174 208 204 204 207 316 327 348 320 320 213 202 224 249 273 255 283 315 308 295 200 214 243 238 276 283 130 153 128 123 230 226 265 266
321 323 328 341 347 347 344 330 288 9 232 255 298 330 323 331 346 334 351 341 11 4 5 333 262 304 334 11 30 13 323 288 321 316 351 351 121 189 180 137 95 207 248 273
320 321 325 336 345 346 348 323 325 327 350 45 33 339 295 329 317 314 358 304 20 332 300 205 276 306 302 350 351 37 40 207 197 239 236 201 278 275 247 184 168 242 234 267
318 316 321 328 337 345 352 314 292 6 337 355 330 334 285 350 347 344 340 344 359 342 295 291 283 287 310 297 298 78 88 237 268 265 263 274 277 281 280 249 243 241 277 263
311 313 321 331 337 351 19 325 354 342 305 307 336 324 333 345 338 343 321 335 329 325 289 252 290 211 202 228 321 84 42 251 330 286 263 266 276 285 282 272 270 261 296 321
301 308 312 322 334 354 20 318 322 303 265 296 314 249 321 327 328 313 342 329 331 312 307 287 275 261 238 224 201 176 203 167 164 275 248 298 286 229 282 317 15 296 299 345
299 299 305 310 321 342 342 330 326 286 281 268 252 280 293 291 292 298 310 325 282 291 310 297 288 264 249 225 228 183 179 159 157 261 15 253 235 24 82 18 80 92 204 251
301 297 299 302 310 321 307 317 306 270 282 308 291 271 280 299 292 299 293 287 307 304 303 321 321 326 334 228 220 186 190 133 253 150 195 287 317 26 354 334 319 22 352 335
303 293 292 296 301 309 289 276 290 259 290 241 287 322 303 291 302 314 278 299 319 306 266 293 284 287 305 1 104 48 139 149 150 84 175 238 15 340 317 346 256 23 3 344
308 293 285 284 285 293 281 261 261 250 251 283 280 255 312 299 310 261 298 333 304 292 296 282 234 255 336 46 6 262 82 46 201 192 240 279 12 309 310 249 294 342 331 315
295 291 278 276 275 279 279 267 258 249 248 278 278 276 261 258 210 222 322 326 325 343 313 286 316 322 316 29 287 315 147 178 241 224 246 269 294 314 228 324 322 311 304 294
283 285 280 269 269 267 266 251 258 262 247 264 285 284 275 248 255 266 238 271 307 300 330 358 336 328 322 25 289 351 95 163 203 198 226 168 329 256 323 332 306 305 312 310
271 272 287 274 263 263 263 247 256 266 261 292 282 241 307 271 236 231 220 267 234 326 348 273 252 269 106 295 263 0 333 66 189 3 225 278 312 332 324 324 309 312 319 316
252 257 277 278 255 252 244 239 251 254 265 279 287 349 255 193 224 228 244 251 275 292 294 259 245 205 213 246 249 227 222 58 219 266 292 321 253 322 319 311 310 317 304 317
248 238 263 269 243 249 241 241 251 248 247 283 290 294 310 230 238 223 248 244 247 256 276 241 242 247 301 296 323 242 174 194 164 249 301 290 287 308 319 315 305 305 304 315
247 250 266 249 220 227 217 268 259 242 246 284 291 291 299 298 209 217 224 231 231 216 232 270 263 252 313 282 267 105 117 343 261 273 298 293 296 308 316 304 312 308 307 311
240 247 248 212 217 220 207 220 188 130 204 245 285 285 302 261 236 230 230 232 214 207 216 242 262 276 144 236 231 179 320 315 319 329 332 314 310 306 323 314 311 312 317 313
246 243 209 201 198 212 230 240 227 262 198 213 266 270 301 240 226 139 199 193 185 211 222 232 240 229 181 251 245 290 316 325 333 327 321 304 311 321 312 316 324 319 316 320
221 189 194 180 196 218 238 256 256 247 216 238 234 255 277 323 240 180 177 189 179 212 211 229 236 201 219 227 250 328 333 333 317 319 320 327 320 314 327 335 329 326 322 319
202 180 162 190 198 194 146 157 183 211 220 237 245 220 260 335 326 182 208 197 198 203 215 197 200 257 155 147 5 353 330 327 326 326 320 322 326 332 331 329 334 336 325 324
180 175 153 147 140 149 187 197 200 198 241 227 237 219 217 241 214 283 256 192 175 241 145 224 200 224 135 138 348 337 328 328 339 337 328 323 325 326 329 333 342 338 337 333
195 159 131 138 172 190 217 199 198 204 239 206 213 219 200 224 207 233 217 224 162 244 144 236 227 108 107 13 342 336 339 358 1 348 338 333 332 336 340 339 344 345 341 333
137 133 139 154 169 205 214 204 192 211 212 221 222 182 180 214 215 243 75 256 237 125 194 184 79 127 100 8 351 6 12 4 354 350 350 346 347 352 352 352 354 349 343 339
139 157 164 207 185 229 206 219 187 207 239 296 315 256 202 204 148 170 151 273 104 241 72 88 141 162 33 333 339 352 350 351 350 348 349 350 348 352 3 2 359 356 348 346
159 187 216 216 232 225 224 247 271 249 272 284 115 294 265 241 166 180 292 250 308 69 135 186 172 165 348 318 333 335 345 349 346 348 355 358 2 4 5 5 6 3 357 351
187 222 252 257 288 240 229 232 274 245 221 237 244 235 100 249 151 116 233 25 223 216 170 155 193 242 302 302 317 333 356 342 348 357 6 7 7 9 7 8 10 12 359 1
211 233 234 250 292 258 250 235 242 221 296 193 209 155 212 122 67 280 177 202 201 160 159 179 225 258 283 302 337 1 349 358 0 9 9 11 12 13 13 9 9 15 3 9